Location: Newark
(23.1505°N, 82.3567°W)
Time: 17:39:26
(UTC+00:00)

Hubble Space Telescope - Visible Passes

Search period start: 28 January 2020 00:00
Search period end: 07 February 2020 00:00
Orbit: 536 x 540 km, 28.5° (Epoch: 27 January)

Date Brightness Start Highest point End Pass type
(mag) Time Alt. Az. Time Alt. Az. Time Alt. Az.
28 Jan 2.1 10:39:03 22° SSW 10:40:58 34° SSE 10:44:43 10° E visible
29 Jan 1.5 10:29:39 40° S 10:30:19 44° SSE 10:34:15 10° E visible
30 Jan 1.3 10:20:06 54° SE 10:20:06 54° SE 10:23:44 10° E visible
31 Jan 2.0 10:10:26 40° E 10:10:26 40° E 10:13:10 10° ENE visible
31 Jan 1.3 11:46:24 10° W 11:50:22 44° N 11:54:19 10° ENE visible
01 Feb 2.7 10:00:38 27° ENE 10:00:38 27° ENE 10:02:34 10° ENE visible
01 Feb 1.4 11:35:59 10° WNW 11:39:49 41° N 11:43:44 10° ENE visible
02 Feb 3.3 09:50:47 18° ENE 09:50:47 18° ENE 09:51:58 10° ENE visible
02 Feb 1.5 11:26:07 14° WNW 11:29:17 39° N 11:33:10 10° ENE visible
03 Feb 3.7 09:40:51 13° ENE 09:40:51 13° ENE 09:41:21 10° ENE visible
03 Feb 1.6 11:16:11 18° WNW 11:18:45 38° N 11:22:37 10° ENE visible
04 Feb 1.6 11:06:13 23° NW 11:08:14 38° N 11:12:05 10° ENE visible
05 Feb 1.6 10:56:12 28° NW 10:57:42 39° N 11:01:34 10° ENE visible
06 Feb 1.5 10:46:11 35° NNW 10:47:10 41° N 10:51:04 10° ENE visible
